Weather History for Provo, UT

Change the Weather History Date:

Friday, June 28, 2013

  Actual Average Record
Temperature  
Mean Temperature 82 °F -  
Max Temperature 100 °F 85 °F 100 °F (2013)
Min Temperature 64 °F 54 °F 47 °F (1991)
Cooling Degree Days 17    
Growing Degree Days 32 (Base 50)    
Moisture  
Dew Point 51 °F    
Average Humidity 41    
Maximum Humidity 73    
Minimum Humidity 17    
Precipitation  
Precipitation 0.00 in - - ()
Sea Level Pressure  
Sea Level Pressure 30.18 in    
Wind  
Wind Speed 3 mph (SE)    
Max Wind Speed 17 mph    
Max Gust Speed 23 mph    
Visibility 12 miles    
Events      
Averages and records for this station are not official NWS values.
T = Trace of Precipitation, MM = Missing Value Source: NWS Daily Summary

Daily Weather History Graph

Daily Weather History Graph

Search for Another Location

Airport:

Trip Planner

Search our weather history database for the weather conditions in past years. The results will help you decide how hot, cold, wet, or windy it might be!

Date:

Astronomy

Jun. 28, 2013 Rise Set
Actual Time 5:59 AM MDT 9:00 PM MDT
Civil Twilight 5:26 AM MDT 9:33 PM MDT
Nautical Twilight 4:45 AM MDT 10:15 PM MDT
Astronomical Twilight 3:56 AM MDT 11:04 PM MDT
Moon No Moon Rise 12:12 PM MDT (6/28)
Length of Visible Light 16h 06m
Length of Day
15h 00m
Waning Gibbous, 65% of the Moon is Illuminated
Jun 28
Waning Gibbous
Jun 29
Last Quarter
Jul 8
New
Jul 15
First Quarter
Jul 22
Full

Hourly Weather History & Observations

Time (MDT) Temp. Heat Index Dew Point Humidity Pressure Visibility Wind Dir Wind Speed Gust Speed Precip Events Conditions
12:35 AM 75.2 °F - 53.6 °F 47% 30.19 in 10.0 mi Calm Calm - N/A   Clear
12:55 AM 73.4 °F - 51.8 °F 47% 30.19 in 10.0 mi Calm Calm - N/A   Clear
1:15 AM 75.2 °F - 51.8 °F 44% 30.18 in 10.0 mi ESE 3.5 mph - N/A   Clear
1:35 AM 71.6 °F - 53.6 °F 53% 30.18 in 10.0 mi SE 3.5 mph - N/A   Clear
1:55 AM 75.2 °F - 53.6 °F 47% 30.18 in 10.0 mi Calm Calm - N/A   Clear
2:15 AM 71.6 °F - 53.6 °F 53% 30.18 in 10.0 mi Calm Calm - N/A   Clear
2:35 AM 69.8 °F - 51.8 °F 53% 30.19 in 10.0 mi NNW 3.5 mph - N/A   Clear
2:55 AM 71.6 °F - 48.2 °F 43% 30.19 in 10.0 mi Calm Calm - N/A   Clear
3:15 AM 75.2 °F - 48.2 °F 38% 30.20 in 10.0 mi NE 4.6 mph - N/A   Clear
3:35 AM 73.4 °F - 50.0 °F 44% 30.19 in 10.0 mi Calm Calm - N/A   Clear
3:55 AM 71.6 °F - 48.2 °F 43% 30.20 in 10.0 mi SSE 6.9 mph - N/A   Clear
4:15 AM 69.8 °F - 51.8 °F 53% 30.20 in 10.0 mi SE 8.1 mph - N/A   Clear
4:35 AM 69.8 °F - 55.4 °F 60% 30.21 in 10.0 mi SSE 4.6 mph - N/A   Clear
4:55 AM 66.2 °F - 57.2 °F 73% 30.20 in 10.0 mi Calm Calm - N/A   Clear
5:15 AM 66.2 °F - 53.6 °F 64% 30.20 in 10.0 mi East 3.5 mph - N/A   Clear
5:35 AM 66.2 °F - 51.8 °F 60% 30.21 in 10.0 mi Calm Calm - N/A   Clear
5:55 AM 66.2 °F - 50.0 °F 56% 30.22 in 10.0 mi Calm Calm - N/A   Clear
6:15 AM 66.2 °F - 48.2 °F 52% 30.22 in 10.0 mi SSE 4.6 mph - N/A   Clear
6:35 AM 64.4 °F - 51.8 °F 64% 30.23 in 10.0 mi NE 3.5 mph - N/A   Clear
6:55 AM 66.2 °F - 51.8 °F 60% 30.23 in 15.0 mi ENE 3.5 mph - N/A   Scattered Clouds
7:55 AM 73.4 °F - 51.8 °F 47% 30.24 in 15.0 mi Calm Calm - N/A   Scattered Clouds
8:56 AM 78.8 °F - 50.0 °F 36% 30.25 in 15.0 mi Calm Calm - N/A   Partly Cloudy
10:52 AM 82.4 °F 81.4 °F 53.6 °F 37% 30.24 in 15.0 mi Variable 3.5 mph - N/A   Scattered Clouds
11:47 AM 87.8 °F 86.1 °F 55.4 °F 33% 30.23 in 15.0 mi Variable 4.6 mph - N/A   Scattered Clouds
12:47 PM 87.8 °F 85.7 °F 53.6 °F 31% 30.21 in 15.0 mi Variable 5.8 mph - N/A   Scattered Clouds
1:49 PM 91.4 °F - 46.4 °F 21% 30.18 in 15.0 mi West 3.5 mph - N/A   Partly Cloudy
2:50 PM 100.4 °F - 48.2 °F 17% 30.14 in 15.0 mi WNW 12.7 mph - N/A   Scattered Clouds
3:49 PM 100.4 °F - 51.8 °F 20% 30.13 in 15.0 mi WNW 17.3 mph - N/A   Scattered Clouds
4:57 PM 96.8 °F 95.8 °F 57.2 °F 27% 30.11 in 15.0 mi NNW 10.4 mph - N/A   Scattered Clouds
5:47 PM 100.4 °F - 51.8 °F 20% 30.10 in 15.0 mi SE 17.3 mph 23.0 mph N/A   Mostly Cloudy
6:54 PM 93.2 °F - 51.8 °F 24% 30.09 in 15.0 mi SSE 15.0 mph - N/A   Mostly Cloudy
7:57 PM 89.6 °F - 48.2 °F 24% 30.11 in 15.0 mi ESE 3.5 mph - N/A   Mostly Cloudy
8:50 PM 87.8 °F - 48.2 °F 25% 30.13 in 15.0 mi South 10.4 mph - N/A   Mostly Cloudy
9:15 PM 86.0 °F 84.2 °F 53.6 °F 33% 30.14 in 10.0 mi SSW 8.1 mph - N/A   Clear
9:35 PM 82.4 °F - 50.0 °F 32% 30.15 in 10.0 mi ESE 8.1 mph - N/A   Clear
9:55 PM 84.2 °F - 48.2 °F 29% 30.15 in 10.0 mi ESE 9.2 mph - N/A   Clear
10:15 PM 82.4 °F - 50.0 °F 32% 30.16 in 10.0 mi SE 8.1 mph - N/A   Clear
10:35 PM 82.4 °F - 50.0 °F 32% 30.16 in 10.0 mi ESE 5.8 mph - N/A   Clear
10:55 PM 84.2 °F - 48.2 °F 29% 30.16 in 10.0 mi SE 3.5 mph - N/A   Clear
11:15 PM 82.4 °F - 50.0 °F 32% 30.15 in 10.0 mi Calm Calm - N/A   Clear
11:35 PM 78.8 °F - 48.2 °F 34% 30.15 in 10.0 mi Calm Calm - N/A   Clear
11:55 PM 75.2 °F - 55.4 °F 50% 30.15 in 10.0 mi Calm Calm - N/A   Clear